    Observer details:
    104 San Marcello Pistoiese.  Observers P. Bacci, M. Maestripieri, M. D. Grazia, 
       D. Losi.  Measurers P. Bacci, L. Tesi, G. Fagioli.  0.60-m reflector + CCD.
    130 Lumezzane.  Observers A. Coffano, W. Marinello, M. Micheli, G. Pizzetti, A. 
       Soffiantini.  Measurer W. Marinello.  0.40-m f/5.9 reflector + CCD.
    157 Frasso Sabino.  Observers R. Haver, R. Gorelli.  Measurer R. Haver.  0.37-m 
       f/6.70 Cassegrain + CCD.
    160 Castelmartini.  Observers M. Jaeger, E. Prosperi, S. Prosperi.  Measurer E. 
       Prosperi.  0.35-m f/10 Schmidt-Cassegrain + CCD.
    204 Schiaparelli Observatory.  Observer L. Buzzi.  0.84-m f/3.5 reflector + CCD.
    595 Farra d'Isonzo.  Observer E. Pettarin.  0.61-m f/4.5 reflector + CCD.
    703 Catalina Sky Survey.  Observer D. C. Fuls.  Measurers E. J. Christensen, G. 
       A. Farneth, D. C. Fuls, A. R. Gibbs, A. D. Grauer, H. Groeller, R. A. 
       Kowalski, S. M. Larson, G. J. Leonard, T. A. Pruyne, D. Rankin, R. L. Seaman,
        F. C. Shelly, K. W. Wierzchos.  0.68-m Schmidt + 10K CCD.
    734 Farpoint Observatory, Eskridge.  Observers G. Hug, D. Cromer, D. Goodin.  
        Measurer D. Cromer.  0.7-m reflector + CCD.
    958 Observatoire de Dax.  Observer P. Dupouy.  0.51-m f/6 reflector + CCD.
    C43 Hoyerswerda.  Observer P. Lindner.  0.30-m f/6.3 Schmidt-Cassegrain + CCD.
    H36 Sandlot Observatory, Scranton.  Observer G. Hug.  0.56-m f/5.1 reflector + 
       CCD.
    I41 Palomar Mountain--ZTF.  Observers B. T. Bolin, K. P. Deshmukh, J. 
       Southworth, Z. T. F. Collaboration.  Measurers B. T. Bolin, C. M. 
       Copperwheat, D. A. Duev, H.-W. Lin, F. J. Masci, Q.-Z. Ye.  1.2-m f/2.4 
       Schmidt.
    I52 Steward Observatory, Mt. Lemmon Station.  Observer D. C. Fuls.  Measurers 
       E. J. Christensen, G. A. Farneth, D. C. Fuls, A. R. Gibbs, A. D. Grauer, H. 
       Groeller, R. A. Kowalski, S. M. Larson, G. J. Leonard, T. A. Pruyne, D. 
       Rankin, R. L. Seaman, F. C. Shelly, K. W. Wierzchos.  1.0-m reflector + CCD.
    I93 St Pardon de Conques.  Observer F. Losse.  0.40-m f/3.7 reflector + CCD.
    K61 Rokycany Observatory.  Observer M. Adamovsky.  0.51-m f/6.8 reflector + CCD.
    K63 G. Pascoli Observatory, Castelvecchio Pascoli.  Observers R. Bacci, P. 
       Bacci.  Measurer R. Bacci.  0.4-m f/3.2 Newtonian reflector + CCD.
    L01 Visnjan Observatory, Tican.  Observer K. Korlevic.  1.0-m f/2.9 reflector + 
       CCD.
    Z84 Calar Alto-Schmidt.  Observer E. Schwab.  Measurers E. Schwab, D. Koschny, 
       M. Micheli.  0.8-m f/3 Schmidt + CCD.
    
    Orbital elements:
    2020 CQ2                                                 Earth MOID = 0.0001 AU
    Epoch 2020 May 31.0 TT = JDT 2459000.5                  Veres
    M 197.27256              (2000.0)            P               Q
    n   1.05965943     Peri.  247.44757     +0.84560325     -0.53139308
    a   0.9528514      Node   144.59429     +0.51628935     +0.78997682
    e   0.2531044      Incl.    5.02630     +0.13564830     +0.30587257
    P   0.93           H   28.7           G   0.15           U   6
    Residuals in seconds of arc
    200215 I41  0.6+  0.8-    200215 C43  0.6-  0.5-    200215 L01  0.4-  0.5-
    200215 I41  0.3-  0.3-    200215 C43  0.4-  0.9-    200215 L01  0.4-  0.1-
    200215 I41  1.3-  0.2+    200215 C43  0.8-  0.7-    200215 L01  0.0   0.2-
    200215 I41  0.5-  0.3+    200215 C43  0.6-  0.2-    200215 L01  0.3-  0.3-
    200215 I41  0.3-  0.8+    200215 C43  0.9-  0.5-    200215 L01  0.0   0.2-
    200215 I41  1.9-  0.5+    200215 K63  0.5-  0.6+    200215 160  0.4-  0.3-
    200215 I41  1.5+  1.7-    200215 Z84  0.0   0.4-    200215 160  0.2-  0.1+
    200215 I41  0.0   1.6-    200215 K63  0.3-  0.1+    200215 160  0.6-  0.3+
    200215 703  1.4-  0.4-    200215 595  0.2-  0.3-    200215 160  0.3-  0.0
    200215 703  0.5-  0.8-    200215 Z84  0.1+  0.5-    200215 160  0.1+  0.0
    200215 703  0.6-  0.6-    200215 K63  0.4-  0.6+    200216 958  0.2-  0.2+
    200215 703  0.7-  0.3-    200215 Z84  0.1-  0.4-    200216 958  0.5+  0.7-
    200215 I52  0.1-  0.7-    200215 595  0.2-  0.1+    200216 958  0.1+  0.7-
    200215 I52  0.1+  0.5-    200215 Z84  0.2-  0.3-    200216 I93  0.1-  0.4-
    200215 I52  0.3-  0.4-    200215 Z84  0.0   0.3-    200216 I93  0.5+  0.7-
    200215 I52  0.1+  0.8-    200215 595  0.3-  0.6+    200216 I93  0.6+  0.3-
    200215 I52  0.3-  0.4-    200215 157  0.4-  0.1+    200216 734  0.3-  0.6-
    200215 I52  0.4-  0.5-    200215 595  0.1+  0.3-    200216 734  0.3-  0.0
    200215 I52  0.0   0.9-    200215 130  0.1+  0.1-    200216 734  0.2+  0.2-
    200215 I52  0.2-  0.5-    200215 157  0.2-  0.8-    200216 734  0.4+  0.0
    200215 K61  0.0   0.9-    200215 130  0.1+  0.2-    200216 734  0.7-  0.4-
    200215 K61  0.1-  0.2-    200215 130  0.3-  0.2-    200216 I52  0.4+  0.2-
    200215 K61  0.3-  1.2-    200215 104  0.5-  0.3-    200216 I52  0.2+  0.3-
    200215 204  1.0-  0.2-    200215 104  0.3-  0.2-    200216 I52  0.2+  0.2-
    200215 204  0.9-  0.5-    200215 104  0.5-  0.2-    200216 I52  0.0   0.1-
    200215 204  0.4-  0.2-    200215 104  0.7-  0.1+    200216 H36  2.7+  0.8-
    200215 204  0.5-  0.3-    200215 L01  0.2-  0.4-    200216 H36  0.7-  0.0
    200215 204  0.9-  0.0     200215 L01  0.3-  0.5-    200216 H36  0.1+  0.4+
    
    Ephemeris:
    2020 CQ2                 a,e,i = 0.95, 0.25, 5                   q = 0.7117
    Date    TT    R. A. (2000) Decl.     Delta      r    Elong.  Phase     V
    2020 01 17    21 30 19.0 -32 25 18   0.1338  0.8639    24.7   151.6    32.8
    ...
    2020 02 01    21 34 06.3 -34 01 43   0.05899 0.9296    18.8   160.0    33.4
    ...
    2020 02 09    21 27 18.7 -35 00 15   0.02271 0.9651    20.0   159.5    31.2
    ...
    2020 02 15    10 18 56.7 +30 24 56   0.0041700.9915   161.5    18.5    17.7
    2020 02 16    09 47 22.3 +33 28 29   0.0085530.9957   159.1    20.7    19.4
    2020 02 17    09 36 46.0 +34 20 16   0.01297 0.9999   157.4    22.3    20.3
    ...
    2020 02 23    09 22 57.5 +35 10 35   0.03973 1.0244   151.7    27.3    23.0
    ...
    2020 03 02    09 21 39.2 +34 47 40   0.07636 1.0549   145.5    32.2    24.6
    ...
    2020 03 17    09 28 46.1 +33 01 12   0.1490  1.1048   134.6    39.9    26.4
    
    A. U. Tomatic                (C) Copyright 2020 MPC           M.P.E.C. 2020-D08
    


    Read MPEC 2020-D07 Read MPEC 2020-D09


    MPEC number:

    Enter an MPEC number in one of the following forms:

    • 1997-B01 (the full form)
    • J97B01 (the packed version of the full form)
    • B01 (the abbreviated form)